Location: Belmont
(13.0833°N, 59.6000°W)
Time: 10:46:51
(UTC+00:00)

Cosmos 2297 Rocket - Pass Details

Date: 17 September 2019
Orbit: 841 x 842 km, 71.0° (Epoch: 22 October)

Event Time Altitude Azimuth Distance (km) Brightness Sun altitude
Rises 22:40:41 0° 174° (S) 3,385 5.2 -11.2°
Reaches altitude 10° 22:43:25 10° 163° (SSE) 2,451 4.4 -11.8°
Maximum altitude 22:48:14 30° 103° (ESE) 1,473 2.9 -13.0°
Drops below altitude 10° 22:53:04 10° 44° (NE) 2,452 4.3 -14.2°
Sets 22:55:46 0° 34° (NE) 3,387 5.1 -14.8°
